Year,Month,Day,Hour,Minute,Value (Times are PST for temperature in C)
2021,04,19,00,00,14.60
2021,04,19,00,01,14.50
2021,04,19,00,02,14.50
2021,04,19,00,03,14.50
2021,04,19,00,04,14.40
2021,04,19,00,05,14.40
2021,04,19,00,06,14.40
2021,04,19,00,07,14.40
2021,04,19,00,08,14.50
2021,04,19,00,09,14.50
2021,04,19,00,10,14.50
2021,04,19,00,11,14.50
2021,04,19,00,12,14.50
2021,04,19,00,13,14.40
2021,04,19,00,14,14.40
2021,04,19,00,15,14.40
2021,04,19,00,16,14.30
2021,04,19,00,17,14.40
2021,04,19,00,18,14.50
2021,04,19,00,19,14.50
2021,04,19,00,20,14.50
2021,04,19,00,21,14.50
2021,04,19,00,22,14.40
2021,04,19,00,23,14.40
2021,04,19,00,24,14.50
2021,04,19,00,25,14.60
2021,04,19,00,26,14.70
2021,04,19,00,27,14.70
2021,04,19,00,28,14.70
2021,04,19,00,29,14.70
2021,04,19,00,30,14.70
2021,04,19,00,31,14.70
2021,04,19,00,32,14.60
2021,04,19,00,33,14.60
2021,04,19,00,34,14.60
2021,04,19,00,35,14.60
2021,04,19,00,36,14.60
2021,04,19,00,37,14.50
2021,04,19,00,38,14.50
2021,04,19,00,39,14.50
2021,04,19,00,40,14.50
2021,04,19,00,41,14.40
2021,04,19,00,42,14.40
2021,04,19,00,43,14.40
2021,04,19,00,44,14.30
2021,04,19,00,45,14.20
2021,04,19,00,46,14.20
2021,04,19,00,47,14.20
2021,04,19,00,48,14.10
2021,04,19,00,49,14.10
2021,04,19,00,50,14.10
2021,04,19,00,51,14.10
2021,04,19,00,52,14.10
2021,04,19,00,53,14.10
2021,04,19,00,54,14.10
2021,04,19,00,55,14.10
2021,04,19,00,56,14.20
2021,04,19,00,57,14.20
2021,04,19,00,58,14.20
2021,04,19,00,59,14.30
2021,04,19,01,00,14.30
2021,04,19,01,01,14.40
2021,04,19,01,02,14.40
2021,04,19,01,03,14.40
2021,04,19,01,04,14.40
2021,04,19,01,05,14.40
2021,04,19,01,06,14.40
2021,04,19,01,07,14.30
2021,04,19,01,08,14.30
2021,04,19,01,09,14.20
2021,04,19,01,10,14.20
2021,04,19,01,11,14.20
2021,04,19,01,12,14.10
2021,04,19,01,13,14.10
2021,04,19,01,14,14.00
2021,04,19,01,15,14.00
2021,04,19,01,16,13.90
2021,04,19,01,17,13.90
2021,04,19,01,18,13.90
2021,04,19,01,19,13.80
2021,04,19,01,20,13.80
2021,04,19,01,21,13.80
2021,04,19,01,22,13.70
2021,04,19,01,23,13.70
2021,04,19,01,24,13.70
2021,04,19,01,25,13.70
2021,04,19,01,26,13.60
2021,04,19,01,27,13.60
2021,04,19,01,28,13.50
2021,04,19,01,29,13.40
2021,04,19,01,30,13.40
2021,04,19,01,31,13.50
2021,04,19,01,32,13.60
2021,04,19,01,33,13.70
2021,04,19,01,34,13.70
2021,04,19,01,35,13.80
2021,04,19,01,36,13.80
2021,04,19,01,37,13.70
2021,04,19,01,38,13.70
2021,04,19,01,39,13.60
2021,04,19,01,40,13.50
2021,04,19,01,41,13.40
2021,04,19,01,42,13.40
2021,04,19,01,43,13.30
2021,04,19,01,44,13.30
2021,04,19,01,45,13.20
2021,04,19,01,46,13.10
2021,04,19,01,47,13.10
2021,04,19,01,48,13.10
2021,04,19,01,49,13.00
2021,04,19,01,50,13.00
2021,04,19,01,51,12.90
2021,04,19,01,52,12.90
2021,04,19,01,53,12.80
2021,04,19,01,54,12.80
2021,04,19,01,55,12.80
2021,04,19,01,56,12.80
2021,04,19,01,57,12.70
2021,04,19,01,58,12.60
2021,04,19,01,59,12.60
2021,04,19,02,00,12.60
2021,04,19,02,01,12.50
2021,04,19,02,02,12.50
2021,04,19,02,03,12.50
2021,04,19,02,04,12.50
2021,04,19,02,05,12.40
2021,04,19,02,06,12.40
2021,04,19,02,07,12.40
2021,04,19,02,08,12.40
2021,04,19,02,09,12.40
2021,04,19,02,10,12.30
2021,04,19,02,11,12.30
2021,04,19,02,12,12.30
2021,04,19,02,13,12.20
2021,04,19,02,14,12.20
2021,04,19,02,15,12.20
2021,04,19,02,16,12.20
2021,04,19,02,17,12.20
2021,04,19,02,18,12.10
2021,04,19,02,19,12.10
2021,04,19,02,20,12.10
2021,04,19,02,21,12.10
2021,04,19,02,22,12.10
2021,04,19,02,23,12.10
2021,04,19,02,24,12.10
2021,04,19,02,25,12.00
2021,04,19,02,26,12.00
2021,04,19,02,27,12.00
2021,04,19,02,28,12.00
2021,04,19,02,29,11.90
2021,04,19,02,30,11.90
2021,04,19,02,31,11.90
2021,04,19,02,32,11.90
2021,04,19,02,33,11.80
2021,04,19,02,34,11.80
2021,04,19,02,35,11.80
2021,04,19,02,36,11.80
2021,04,19,02,37,11.70
2021,04,19,02,38,11.70
2021,04,19,02,39,11.70
2021,04,19,02,40,11.70
2021,04,19,02,41,11.70
2021,04,19,02,42,11.70
2021,04,19,02,43,11.60
2021,04,19,02,44,11.60
2021,04,19,02,45,11.60
2021,04,19,02,46,11.60
2021,04,19,02,47,11.60
2021,04,19,02,48,11.60
2021,04,19,02,49,11.50
2021,04,19,02,50,11.50
2021,04,19,02,51,11.50
2021,04,19,02,52,11.50
2021,04,19,02,53,11.50
2021,04,19,02,54,11.40
2021,04,19,02,55,11.40
2021,04,19,02,56,11.40
2021,04,19,02,57,11.40
2021,04,19,02,58,11.30
2021,04,19,02,59,11.30
2021,04,19,03,00,11.30
2021,04,19,03,01,11.30
2021,04,19,03,02,11.20
2021,04,19,03,03,11.20
2021,04,19,03,04,11.10
2021,04,19,03,05,11.10
2021,04,19,03,06,11.00
2021,04,19,03,07,10.90
2021,04,19,03,08,10.90
2021,04,19,03,09,10.90
2021,04,19,03,10,10.80
2021,04,19,03,11,10.80
2021,04,19,03,12,10.70
2021,04,19,03,13,10.70
2021,04,19,03,14,10.70
2021,04,19,03,15,10.70
2021,04,19,03,16,10.60
2021,04,19,03,17,10.60
2021,04,19,03,18,10.50
2021,04,19,03,19,10.50
2021,04,19,03,20,10.40
2021,04,19,03,21,10.40
2021,04,19,03,22,10.40
2021,04,19,03,23,10.40
2021,04,19,03,24,10.40
2021,04,19,03,25,10.30
2021,04,19,03,26,10.30
2021,04,19,03,27,10.30
2021,04,19,03,28,10.30
2021,04,19,03,29,10.30
2021,04,19,03,30,10.20
2021,04,19,03,31,10.20
2021,04,19,03,32,10.20
2021,04,19,03,33,10.20
2021,04,19,03,34,10.10
2021,04,19,03,35,10.10
2021,04,19,03,36,10.10
2021,04,19,03,37,10.10
2021,04,19,03,38,10.10
2021,04,19,03,39,10.10
2021,04,19,03,40,10.10
2021,04,19,03,41,10.00
2021,04,19,03,42,10.00
2021,04,19,03,43,9.90
2021,04,19,03,44,9.90
2021,04,19,03,45,9.90
2021,04,19,03,46,9.90
2021,04,19,03,47,9.90
2021,04,19,03,48,9.90
2021,04,19,03,49,9.90
2021,04,19,03,50,9.90
2021,04,19,03,51,9.90
2021,04,19,03,52,9.90
2021,04,19,03,53,9.90
2021,04,19,03,54,9.90
2021,04,19,03,55,9.90
2021,04,19,03,56,9.80
2021,04,19,03,57,9.80
2021,04,19,03,58,9.80
2021,04,19,03,59,9.80
2021,04,19,04,00,9.80
2021,04,19,04,01,9.80
2021,04,19,04,02,9.80
2021,04,19,04,03,9.80
2021,04,19,04,04,9.80
2021,04,19,04,05,9.80
2021,04,19,04,06,9.80
2021,04,19,04,07,9.80
2021,04,19,04,08,9.80
2021,04,19,04,09,9.80
2021,04,19,04,10,9.80
2021,04,19,04,11,9.80
2021,04,19,04,12,9.80
2021,04,19,04,13,9.80
2021,04,19,04,14,9.80
2021,04,19,04,15,9.80
2021,04,19,04,16,9.80
2021,04,19,04,17,9.80
2021,04,19,04,18,9.80
2021,04,19,04,19,9.80
2021,04,19,04,20,9.70
2021,04,19,04,21,9.70
2021,04,19,04,22,9.70
2021,04,19,04,23,9.70
2021,04,19,04,24,9.70
2021,04,19,04,25,9.70
2021,04,19,04,26,9.60
2021,04,19,04,27,9.60
2021,04,19,04,28,9.60
2021,04,19,04,29,9.60
2021,04,19,04,30,9.50
2021,04,19,04,31,9.50
2021,04,19,04,32,9.50
2021,04,19,04,33,9.50
2021,04,19,04,34,9.40
2021,04,19,04,35,9.40
2021,04,19,04,36,9.40
2021,04,19,04,37,9.40
2021,04,19,04,38,9.30
2021,04,19,04,39,9.30
2021,04,19,04,40,9.30
2021,04,19,04,41,9.30
2021,04,19,04,42,9.20
2021,04,19,04,43,9.20
2021,04,19,04,44,9.20
2021,04,19,04,45,9.20
2021,04,19,04,46,9.10
2021,04,19,04,47,9.10
2021,04,19,04,48,9.10
2021,04,19,04,49,9.00
2021,04,19,04,50,9.00
2021,04,19,04,51,9.00
2021,04,19,04,52,9.00
2021,04,19,04,53,8.90
2021,04,19,04,54,8.90
2021,04,19,04,55,8.90
2021,04,19,04,56,8.90
2021,04,19,04,57,8.90
2021,04,19,04,58,8.90
2021,04,19,04,59,8.80
2021,04,19,05,00,8.80
2021,04,19,05,01,8.80
2021,04,19,05,02,8.80
2021,04,19,05,03,8.80
2021,04,19,05,04,8.70
2021,04,19,05,05,8.70
2021,04,19,05,06,8.70
2021,04,19,05,07,8.70
2021,04,19,05,08,8.70
2021,04,19,05,09,8.70
2021,04,19,05,10,8.60
2021,04,19,05,11,8.60
2021,04,19,05,12,8.60
2021,04,19,05,13,8.60
2021,04,19,05,14,8.60
2021,04,19,05,15,8.60
2021,04,19,05,16,8.60
2021,04,19,05,17,8.60
2021,04,19,05,18,8.60
2021,04,19,05,19,8.60
2021,04,19,05,20,8.50
2021,04,19,05,21,8.50
2021,04,19,05,22,8.50
2021,04,19,05,23,8.50
2021,04,19,05,24,8.50
2021,04,19,05,25,8.50
2021,04,19,05,26,8.40
2021,04,19,05,27,8.40
2021,04,19,05,28,8.40
2021,04,19,05,29,8.40
2021,04,19,05,30,8.40
2021,04,19,05,31,8.40
2021,04,19,05,32,8.30
2021,04,19,05,33,8.30
2021,04,19,05,34,8.30
2021,04,19,05,35,8.30
2021,04,19,05,36,8.30
2021,04,19,05,37,8.30
2021,04,19,05,38,8.20
2021,04,19,05,39,8.20
2021,04,19,05,40,8.20
2021,04,19,05,41,8.10
2021,04,19,05,42,8.10
2021,04,19,05,43,8.10
2021,04,19,05,44,8.10
2021,04,19,05,45,8.10
2021,04,19,05,46,8.00
2021,04,19,05,47,8.00
2021,04,19,05,48,8.00
2021,04,19,05,49,8.00
2021,04,19,05,50,8.00
2021,04,19,05,51,8.00
2021,04,19,05,52,8.00
2021,04,19,05,53,8.00
2021,04,19,05,54,8.00
2021,04,19,05,55,7.90
2021,04,19,05,56,7.90
2021,04,19,05,57,7.90
2021,04,19,05,58,7.90
2021,04,19,05,59,7.90
2021,04,19,06,00,7.90
2021,04,19,06,01,7.90
2021,04,19,06,02,7.80
2021,04,19,06,03,7.80
2021,04,19,06,04,7.80
2021,04,19,06,05,7.80
2021,04,19,06,06,7.80
2021,04,19,06,07,7.80
2021,04,19,06,08,7.80
2021,04,19,06,09,7.80
2021,04,19,06,10,7.80
2021,04,19,06,11,7.80
2021,04,19,06,12,7.80
2021,04,19,06,13,7.80
2021,04,19,06,14,7.80
2021,04,19,06,15,7.70
2021,04,19,06,16,7.70
2021,04,19,06,17,7.70
2021,04,19,06,18,7.70
2021,04,19,06,19,7.70
2021,04,19,06,20,7.70
2021,04,19,06,21,7.70
2021,04,19,06,22,7.70
2021,04,19,06,23,7.60
2021,04,19,06,24,7.60
2021,04,19,06,25,7.60
2021,04,19,06,26,7.60
2021,04,19,06,27,7.60
2021,04,19,06,28,7.60
2021,04,19,06,29,7.60
2021,04,19,06,30,7.60
2021,04,19,06,31,7.50
2021,04,19,06,32,7.50
2021,04,19,06,33,7.50
2021,04,19,06,34,7.50
2021,04,19,06,35,7.40
2021,04,19,06,36,7.40
2021,04,19,06,37,7.40
2021,04,19,06,38,7.40
2021,04,19,06,39,7.40
2021,04,19,06,40,7.40
2021,04,19,06,41,7.40
2021,04,19,06,42,7.40
2021,04,19,06,43,7.40
2021,04,19,06,44,7.40
2021,04,19,06,45,7.40
2021,04,19,06,46,7.40
2021,04,19,06,47,7.40
2021,04,19,06,48,7.40
2021,04,19,06,49,7.40
2021,04,19,06,50,7.40
2021,04,19,06,51,7.40
2021,04,19,06,52,7.40
2021,04,19,06,53,7.40
2021,04,19,06,54,7.40
2021,04,19,06,55,7.40
2021,04,19,06,56,7.40
2021,04,19,06,57,7.40
2021,04,19,06,58,7.40
2021,04,19,06,59,7.40
2021,04,19,07,00,7.40
2021,04,19,07,01,7.40
2021,04,19,07,02,7.40
2021,04,19,07,03,7.40
2021,04,19,07,04,7.40
2021,04,19,07,05,7.40
2021,04,19,07,06,7.40
2021,04,19,07,07,7.40
2021,04,19,07,08,7.40
2021,04,19,07,09,7.40
2021,04,19,07,10,7.40
2021,04,19,07,11,7.40
2021,04,19,07,12,7.50
2021,04,19,07,13,7.50
2021,04,19,07,14,7.50
2021,04,19,07,15,7.50
2021,04,19,07,16,7.60
2021,04,19,07,17,7.60
2021,04,19,07,18,7.60
2021,04,19,07,19,7.60
2021,04,19,07,20,7.60
2021,04,19,07,21,7.60
2021,04,19,07,22,7.70
2021,04,19,07,23,7.70
2021,04,19,07,24,7.70
2021,04,19,07,25,7.70
2021,04,19,07,26,7.70
2021,04,19,07,27,7.80
2021,04,19,07,28,7.80
2021,04,19,07,29,7.80
2021,04,19,07,30,7.80
2021,04,19,07,31,7.80
2021,04,19,07,32,7.90
2021,04,19,07,33,7.90
2021,04,19,07,34,7.90
2021,04,19,07,35,8.00
2021,04,19,07,36,8.00
2021,04,19,07,37,8.10
2021,04,19,07,38,8.10
2021,04,19,07,39,8.20
2021,04,19,07,40,8.20
2021,04,19,07,41,8.20
2021,04,19,07,42,8.30
2021,04,19,07,43,8.30
2021,04,19,07,44,8.30
2021,04,19,07,45,8.40
2021,04,19,07,46,8.40
2021,04,19,07,47,8.50
2021,04,19,07,48,8.50
2021,04,19,07,49,8.60
2021,04,19,07,50,8.60
2021,04,19,07,51,8.60
2021,04,19,07,52,8.60
2021,04,19,07,53,8.60
2021,04,19,07,54,8.70
2021,04,19,07,55,8.70
2021,04,19,07,56,8.80
2021,04,19,07,57,8.90
2021,04,19,07,58,8.90
2021,04,19,07,59,9.00
2021,04,19,08,00,9.00
2021,04,19,08,01,9.10
2021,04,19,08,02,9.20
2021,04,19,08,03,9.20
2021,04,19,08,04,9.30
2021,04,19,08,05,9.30
2021,04,19,08,06,9.40
2021,04,19,08,07,9.40
2021,04,19,08,08,9.50
2021,04,19,08,09,9.50
2021,04,19,08,10,9.60
2021,04,19,08,11,9.60
2021,04,19,08,12,9.70
2021,04,19,08,13,9.70
2021,04,19,08,14,9.80
2021,04,19,08,15,9.80
2021,04,19,08,16,9.80
2021,04,19,08,17,9.90
2021,04,19,08,18,9.90
2021,04,19,08,19,10.00
2021,04,19,08,20,10.10
2021,04,19,08,21,10.10
2021,04,19,08,22,10.20
2021,04,19,08,23,10.30
2021,04,19,08,24,10.30
2021,04,19,08,25,10.40
2021,04,19,08,26,10.50
2021,04,19,08,27,10.50
2021,04,19,08,28,10.60
2021,04,19,08,29,10.70
2021,04,19,08,30,10.70
2021,04,19,08,31,10.80
2021,04,19,08,32,10.90
2021,04,19,08,33,11.00
2021,04,19,08,34,11.00
2021,04,19,08,35,11.10
2021,04,19,08,36,11.20
2021,04,19,08,37,11.30
2021,04,19,08,38,11.40
2021,04,19,08,39,11.40
2021,04,19,08,40,11.50
2021,04,19,08,41,11.60
2021,04,19,08,42,11.70
2021,04,19,08,43,11.90
2021,04,19,08,44,12.00
2021,04,19,08,45,12.10
2021,04,19,08,46,12.20
2021,04,19,08,47,12.30
2021,04,19,08,48,12.40
2021,04,19,08,49,12.50
2021,04,19,08,50,12.60
2021,04,19,08,51,12.70
2021,04,19,08,52,12.80
2021,04,19,08,53,12.90
2021,04,19,08,54,13.10
2021,04,19,08,55,13.20
2021,04,19,08,56,13.30
2021,04,19,08,57,13.50
2021,04,19,08,58,13.60
2021,04,19,08,59,13.70
2021,04,19,09,00,13.80
2021,04,19,09,01,13.90
2021,04,19,09,02,14.00
2021,04,19,09,03,14.10
2021,04,19,09,04,14.20
2021,04,19,09,05,14.40
2021,04,19,09,06,14.50
2021,04,19,09,07,14.60
2021,04,19,09,08,14.80
2021,04,19,09,09,15.00
2021,04,19,09,10,15.10
2021,04,19,09,11,15.30
2021,04,19,09,12,15.50
2021,04,19,09,13,15.60
2021,04,19,09,14,15.80
2021,04,19,09,15,15.90
2021,04,19,09,16,16.00
2021,04,19,09,17,16.10
2021,04,19,09,18,16.20
2021,04,19,09,19,16.20
2021,04,19,09,20,16.30
2021,04,19,09,21,16.30
2021,04,19,09,22,16.40
2021,04,19,09,23,16.40
2021,04,19,09,24,16.40
2021,04,19,09,25,16.40
2021,04,19,09,26,16.40
2021,04,19,09,27,16.40
2021,04,19,09,28,16.40
2021,04,19,09,29,16.50
2021,04,19,09,30,16.50
2021,04,19,09,31,16.50
2021,04,19,09,32,16.50
2021,04,19,09,33,16.50
2021,04,19,09,34,16.50
2021,04,19,09,35,16.50
2021,04,19,09,36,16.50
2021,04,19,09,37,16.40
2021,04,19,09,38,16.40
2021,04,19,09,39,16.40
2021,04,19,09,40,16.40
2021,04,19,09,41,16.40
2021,04,19,09,42,16.40
2021,04,19,09,43,16.50
2021,04,19,09,44,16.60
2021,04,19,09,45,16.50
2021,04,19,09,46,16.50
2021,04,19,09,47,16.50
2021,04,19,09,48,16.50
2021,04,19,09,49,16.50
2021,04,19,09,50,16.50
2021,04,19,09,51,16.50
2021,04,19,09,52,16.50
2021,04,19,09,53,16.50
2021,04,19,09,54,16.60
2021,04,19,09,55,16.70
2021,04,19,09,56,16.70
2021,04,19,09,57,16.80
2021,04,19,09,58,16.80
2021,04,19,09,59,16.90
2021,04,19,10,00,17.00
2021,04,19,10,01,17.10
2021,04,19,10,02,17.20
2021,04,19,10,03,17.20
2021,04,19,10,04,17.20
2021,04,19,10,05,17.20
2021,04,19,10,06,17.20
2021,04,19,10,07,17.10
2021,04,19,10,08,17.00
2021,04,19,10,09,17.00
2021,04,19,10,10,16.90
2021,04,19,10,11,16.90
2021,04,19,10,12,16.80
2021,04,19,10,13,16.70
2021,04,19,10,14,16.60
2021,04,19,10,15,16.60
2021,04,19,10,16,16.70
2021,04,19,10,17,16.70
2021,04,19,10,18,16.70
2021,04,19,10,19,16.70
2021,04,19,10,20,16.70
2021,04,19,10,21,16.80
2021,04,19,10,22,16.80
2021,04,19,10,23,16.80
2021,04,19,10,24,17.00
2021,04,19,10,25,17.10
2021,04,19,10,26,17.10
2021,04,19,10,27,17.10
2021,04,19,10,28,17.10
2021,04,19,10,29,17.00
2021,04,19,10,30,16.90
2021,04,19,10,31,16.90
2021,04,19,10,32,16.80
2021,04,19,10,33,16.80
2021,04,19,10,34,16.80
2021,04,19,10,35,16.80
2021,04,19,10,36,16.90
2021,04,19,10,37,16.90
2021,04,19,10,38,17.00
2021,04,19,10,39,17.00
2021,04,19,10,40,17.00
2021,04,19,10,41,17.10
2021,04,19,10,42,17.10
2021,04,19,10,43,17.10
2021,04,19,10,44,17.00
2021,04,19,10,45,16.90
2021,04,19,10,46,16.90
2021,04,19,10,47,16.90
2021,04,19,10,48,16.90
2021,04,19,10,49,16.90
2021,04,19,10,50,16.90
2021,04,19,10,51,17.00
2021,04,19,10,52,17.10
2021,04,19,10,53,17.20
2021,04,19,10,54,17.20
2021,04,19,10,55,17.20
2021,04,19,10,56,17.20
2021,04,19,10,57,17.20
2021,04,19,10,58,17.10
2021,04,19,10,59,17.20
2021,04,19,11,00,17.20
2021,04,19,11,01,17.20
2021,04,19,11,02,17.30
2021,04,19,11,03,17.40
2021,04,19,11,04,17.40
2021,04,19,11,05,17.40
2021,04,19,11,06,17.40
2021,04,19,11,07,17.30
2021,04,19,11,08,17.20
2021,04,19,11,09,17.20
2021,04,19,11,10,17.10
2021,04,19,11,11,17.10
2021,04,19,11,12,17.20
2021,04,19,11,13,17.20
2021,04,19,11,14,17.30
2021,04,19,11,15,17.30
2021,04,19,11,16,17.30
2021,04,19,11,17,17.30
2021,04,19,11,18,17.20
2021,04,19,11,19,17.10
2021,04,19,11,20,17.00
2021,04,19,11,21,16.90
2021,04,19,11,22,16.90
2021,04,19,11,23,17.00
2021,04,19,11,24,17.10
2021,04,19,11,25,17.10
2021,04,19,11,26,17.20
2021,04,19,11,27,17.20
2021,04,19,11,28,17.10
2021,04,19,11,29,17.10
2021,04,19,11,30,17.10
2021,04,19,11,31,17.10
2021,04,19,11,32,17.20
2021,04,19,11,33,17.20
2021,04,19,11,34,17.10
2021,04,19,11,35,17.10
2021,04,19,11,36,17.10
2021,04,19,11,37,17.10
2021,04,19,11,38,17.00
2021,04,19,11,39,16.90
2021,04,19,11,40,16.90
2021,04,19,11,41,16.80
2021,04,19,11,42,16.80
2021,04,19,11,43,16.70
2021,04,19,11,44,16.60
2021,04,19,11,45,16.60
2021,04,19,11,46,16.70
2021,04,19,11,47,16.70
2021,04,19,11,48,16.70
2021,04,19,11,49,16.70
2021,04,19,11,50,16.70
2021,04,19,11,51,16.60
2021,04,19,11,52,16.60
2021,04,19,11,53,16.60
2021,04,19,11,54,16.60
2021,04,19,11,55,16.60
2021,04,19,11,56,16.60
2021,04,19,11,57,16.70
2021,04,19,11,58,16.70
2021,04,19,11,59,16.70
2021,04,19,12,00,16.70
2021,04,19,12,01,16.70
2021,04,19,12,02,16.70
2021,04,19,12,03,16.70
2021,04,19,12,04,16.70
2021,04,19,12,05,16.70
2021,04,19,12,06,16.70
2021,04,19,12,07,16.80
2021,04,19,12,08,16.90
2021,04,19,12,09,16.90
2021,04,19,12,10,17.00
2021,04,19,12,11,17.10
2021,04,19,12,12,17.30
2021,04,19,12,13,17.40
2021,04,19,12,14,17.40
2021,04,19,12,15,17.50
2021,04,19,12,16,17.40
2021,04,19,12,17,17.40
2021,04,19,12,18,17.40
2021,04,19,12,19,17.40
2021,04,19,12,20,17.40
2021,04,19,12,21,17.40
2021,04,19,12,22,17.50
2021,04,19,12,23,17.50
2021,04,19,12,24,17.50
2021,04,19,12,25,17.50
2021,04,19,12,26,17.50
2021,04,19,12,27,17.60
2021,04,19,12,28,17.70
2021,04,19,12,29,17.80
2021,04,19,12,30,17.80
2021,04,19,12,31,18.00
2021,04,19,12,32,18.10
2021,04,19,12,33,18.20
2021,04,19,12,34,18.20
2021,04,19,12,35,18.30
2021,04,19,12,36,18.30
2021,04,19,12,37,18.30
2021,04,19,12,38,18.30
2021,04,19,12,39,18.30
2021,04,19,12,40,18.20
2021,04,19,12,41,18.20
2021,04,19,12,42,18.20
2021,04,19,12,43,18.20
2021,04,19,12,44,18.10
2021,04,19,12,45,18.10
2021,04,19,12,46,18.10
2021,04,19,12,47,18.10
2021,04,19,12,48,18.00
2021,04,19,12,49,18.00
2021,04,19,12,50,17.80
2021,04,19,12,51,17.80
2021,04,19,12,52,17.70
2021,04,19,12,53,17.60
2021,04,19,12,54,17.40
2021,04,19,12,55,17.40
2021,04,19,12,56,17.40
2021,04,19,12,57,17.40
2021,04,19,12,58,17.50
2021,04,19,12,59,17.50
2021,04,19,13,00,17.60
2021,04,19,13,01,17.70
2021,04,19,13,02,17.70
2021,04,19,13,03,17.80
2021,04,19,13,04,17.90
2021,04,19,13,05,18.00
2021,04,19,13,06,18.10
2021,04,19,13,07,18.20
2021,04,19,13,08,18.20
2021,04,19,13,09,18.30
2021,04,19,13,10,18.30
2021,04,19,13,11,18.30
2021,04,19,13,12,18.30
2021,04,19,13,13,18.20
2021,04,19,13,14,18.20
2021,04,19,13,15,18.30
2021,04,19,13,16,18.30
2021,04,19,13,17,18.30
2021,04,19,13,18,18.40
2021,04,19,13,19,18.50
2021,04,19,13,20,18.70
2021,04,19,13,21,18.90
2021,04,19,13,22,19.00
2021,04,19,13,23,19.10
2021,04,19,13,24,19.20
2021,04,19,13,25,19.20
2021,04,19,13,26,19.10
2021,04,19,13,27,19.00
2021,04,19,13,28,18.90
2021,04,19,13,29,18.90
2021,04,19,13,30,18.90
2021,04,19,13,31,18.90
2021,04,19,13,32,19.00
2021,04,19,13,33,19.00
2021,04,19,13,34,18.90
2021,04,19,13,35,18.80
2021,04,19,13,36,18.70
2021,04,19,13,37,18.70
2021,04,19,13,38,18.60
2021,04,19,13,39,18.60
2021,04,19,13,40,18.70
2021,04,19,13,41,18.80
2021,04,19,13,42,18.90
2021,04,19,13,43,18.90
2021,04,19,13,44,19.00
2021,04,19,13,45,19.00
2021,04,19,13,46,19.00
2021,04,19,13,47,18.90
2021,04,19,13,48,18.90
2021,04,19,13,49,18.90
2021,04,19,13,50,18.90
2021,04,19,13,51,19.00
2021,04,19,13,52,19.00
2021,04,19,13,53,19.00
2021,04,19,13,54,19.00
2021,04,19,13,55,18.90
2021,04,19,13,56,18.90
2021,04,19,13,57,18.90
2021,04,19,13,58,18.90
2021,04,19,13,59,18.90
2021,04,19,14,00,18.90
2021,04,19,14,01,18.90
2021,04,19,14,02,18.90
2021,04,19,14,03,18.90
2021,04,19,14,04,18.90
2021,04,19,14,05,18.90
2021,04,19,14,06,19.00
2021,04,19,14,07,19.00
2021,04,19,14,08,19.00
2021,04,19,14,09,19.10
2021,04,19,14,10,19.20
2021,04,19,14,11,19.30
2021,04,19,14,12,19.30
2021,04,19,14,13,19.40
2021,04,19,14,14,19.40
2021,04,19,14,15,19.50
2021,04,19,14,16,19.60
2021,04,19,14,17,19.60
2021,04,19,14,18,19.60
2021,04,19,14,19,19.60
2021,04,19,14,20,19.70
2021,04,19,14,21,19.80
2021,04,19,14,22,19.90
2021,04,19,14,23,19.90
2021,04,19,14,24,19.90
2021,04,19,14,25,19.90
2021,04,19,14,26,19.80
2021,04,19,14,27,19.80
2021,04,19,14,28,19.80
2021,04,19,14,29,19.70
2021,04,19,14,30,19.60
2021,04,19,14,31,19.60
2021,04,19,14,32,19.50
2021,04,19,14,33,19.60
2021,04,19,14,34,19.60
2021,04,19,14,35,19.60
2021,04,19,14,36,19.60
2021,04,19,14,37,19.50
2021,04,19,14,38,19.40
2021,04,19,14,39,19.40
2021,04,19,14,40,19.30
2021,04,19,14,41,19.30
2021,04,19,14,42,19.30
2021,04,19,14,43,19.40
2021,04,19,14,44,19.50
2021,04,19,14,45,19.60
2021,04,19,14,46,19.70
2021,04,19,14,47,19.70
2021,04,19,14,48,19.80
2021,04,19,14,49,19.90
2021,04,19,14,50,20.00
2021,04,19,14,51,20.00
2021,04,19,14,52,20.00
2021,04,19,14,53,20.10
2021,04,19,14,54,20.20
2021,04,19,14,55,20.10
2021,04,19,14,56,20.10
2021,04,19,14,57,20.10
2021,04,19,14,58,20.00
2021,04,19,14,59,20.00
2021,04,19,15,00,20.10
2021,04,19,15,01,20.20
2021,04,19,15,02,20.20
2021,04,19,15,03,20.20
2021,04,19,15,04,20.20
2021,04,19,15,05,20.20
2021,04,19,15,06,20.20
2021,04,19,15,07,20.20
2021,04,19,15,08,20.30
2021,04,19,15,09,20.30
2021,04,19,15,10,20.40
2021,04,19,15,11,20.40
2021,04,19,15,12,20.50
2021,04,19,15,13,20.50
2021,04,19,15,14,20.50
2021,04,19,15,15,20.50
2021,04,19,15,16,20.50
2021,04,19,15,17,20.50
2021,04,19,15,18,20.60
2021,04,19,15,19,20.60
2021,04,19,15,20,20.60
2021,04,19,15,21,20.60
2021,04,19,15,22,20.60
2021,04,19,15,23,20.50
2021,04,19,15,24,20.50
2021,04,19,15,25,20.50
2021,04,19,15,26,20.50
2021,04,19,15,27,20.50
2021,04,19,15,28,20.50
2021,04,19,15,29,20.50
2021,04,19,15,30,20.50
2021,04,19,15,31,20.40
2021,04,19,15,32,20.30
2021,04,19,15,33,20.30
2021,04,19,15,34,20.20
2021,04,19,15,35,20.10
2021,04,19,15,36,20.10
2021,04,19,15,37,20.00
2021,04,19,15,38,19.90
2021,04,19,15,39,19.90
2021,04,19,15,40,19.80
2021,04,19,15,41,19.80
2021,04,19,15,42,19.90
2021,04,19,15,43,19.90
2021,04,19,15,44,19.80
2021,04,19,15,45,19.80
2021,04,19,15,46,19.70
2021,04,19,15,47,19.70
2021,04,19,15,48,19.80
2021,04,19,15,49,19.80
2021,04,19,15,50,19.70
2021,04,19,15,51,19.70
2021,04,19,15,52,19.80
2021,04,19,15,53,19.90
2021,04,19,15,54,20.00
2021,04,19,15,55,20.10
2021,04,19,15,56,20.20
2021,04,19,15,57,20.20
2021,04,19,15,58,20.20
2021,04,19,15,59,20.20
2021,04,19,16,00,20.20
2021,04,19,16,01,20.20
2021,04,19,16,02,20.00
2021,04,19,16,03,20.00
2021,04,19,16,04,19.80
2021,04,19,16,05,19.70
2021,04,19,16,06,19.70
2021,04,19,16,07,19.70
2021,04,19,16,08,19.70
2021,04,19,16,09,19.70
2021,04,19,16,10,19.70
2021,04,19,16,11,19.70
2021,04,19,16,12,19.70
2021,04,19,16,13,19.60
2021,04,19,16,14,19.60
2021,04,19,16,15,19.60
2021,04,19,16,16,19.60
2021,04,19,16,17,19.60
2021,04,19,16,18,19.60
2021,04,19,16,19,19.50
2021,04,19,16,20,19.50
2021,04,19,16,21,19.50
2021,04,19,16,22,19.50
2021,04,19,16,23,19.50
2021,04,19,16,24,19.50
2021,04,19,16,25,19.50
2021,04,19,16,26,19.60
2021,04,19,16,27,19.70
2021,04,19,16,28,19.70
2021,04,19,16,29,19.70
2021,04,19,16,30,19.70
2021,04,19,16,31,19.80
2021,04,19,16,32,19.80
2021,04,19,16,33,19.80
2021,04,19,16,34,19.70
2021,04,19,16,35,19.70
2021,04,19,16,36,19.60
2021,04,19,16,37,19.50
2021,04,19,16,38,19.60
2021,04,19,16,39,19.60
2021,04,19,16,40,19.60
2021,04,19,16,41,19.70
2021,04,19,16,42,19.70
2021,04,19,16,43,19.80
2021,04,19,16,44,19.80
2021,04,19,16,45,19.90
2021,04,19,16,46,19.90
2021,04,19,16,47,19.90
2021,04,19,16,48,20.00
2021,04,19,16,49,20.00
2021,04,19,16,50,20.00
2021,04,19,16,51,20.00
2021,04,19,16,52,19.90
2021,04,19,16,53,19.90
2021,04,19,16,54,19.80
2021,04,19,16,55,19.80
2021,04,19,16,56,19.80
2021,04,19,16,57,19.90
2021,04,19,16,58,20.00
2021,04,19,16,59,20.00
2021,04,19,17,00,20.10
2021,04,19,17,01,20.10
2021,04,19,17,02,20.20
2021,04,19,17,03,20.20
2021,04,19,17,04,20.30
2021,04,19,17,05,20.30
2021,04,19,17,06,20.30
2021,04,19,17,07,20.20
2021,04,19,17,08,20.20
2021,04,19,17,09,20.20
2021,04,19,17,10,20.20
2021,04,19,17,11,20.20
2021,04,19,17,12,20.20
2021,04,19,17,13,20.10
2021,04,19,17,14,20.10
2021,04,19,17,15,20.10
2021,04,19,17,16,20.00
2021,04,19,17,17,20.00
2021,04,19,17,18,20.00
2021,04,19,17,19,20.00
2021,04,19,17,20,20.00
2021,04,19,17,21,20.00
2021,04,19,17,22,20.00
2021,04,19,17,23,20.00
2021,04,19,17,24,20.00
2021,04,19,17,25,20.00
2021,04,19,17,26,20.10
2021,04,19,17,27,20.00
2021,04,19,17,28,20.00
2021,04,19,17,29,20.00
2021,04,19,17,30,19.90
2021,04,19,17,31,19.90